Time,TemperatureF,DewpointF,PressureIn,WindDirection,WindDirectionDegrees,WindSpeedMPH,WindSpeedGustMPH,Humidity,HourlyPrecipIn,Conditions,Clouds,dailyrainin,SoftwareType,DateUTC
2013-05-20 00:00:00,75.9,68.9,29.65,ESE,112,0.0,0.0,79,0.00,CLR,CLR,0.00,WeatherDisplay:10.37,2013-05-20 04:00:00,
2013-05-20 00:30:00,75.6,69.3,29.64,ESE,112,0.0,0.0,81,0.00,CLR,CLR,0.00,WeatherDisplay:10.37,2013-05-20 04:30:00,
2013-05-20 01:00:00,75.0,69.1,29.65,SSE,158,0.0,0.0,82,0.00,CLR,CLR,0.00,WeatherDisplay:10.37,2013-05-20 05:00:00,
2013-05-20 01:30:00,74.8,69.3,29.63,SE,135,0.0,0.0,83,0.00,CLR,CLR,0.00,WeatherDisplay:10.37,2013-05-20 05:30:00,
2013-05-20 02:00:00,74.5,69.3,29.61,ESE,112,0.0,0.0,84,0.00,CLR,CLR,0.00,WeatherDisplay:10.37,2013-05-20 06:00:00,
2013-05-20 02:30:00,74.5,69.0,29.60,SE,135,0.0,0.0,83,0.00,CLR,CLR,0.00,WeatherDisplay:10.37,2013-05-20 06:30:00,
2013-05-20 03:00:00,74.8,69.0,29.59,SSE,151,0.0,0.0,82,0.00,CLR,CLR,0.00,WeatherDisplay:10.37,2013-05-20 07:00:00,
2013-05-20 03:30:00,74.3,68.8,29.58,ESE,112,0.0,0.0,83,0.00,CLR,CLR,0.00,WeatherDisplay:10.37,2013-05-20 07:30:00,
2013-05-20 04:00:00,74.1,68.6,29.59,SSE,158,0.0,0.0,83,0.00,CLR,CLR,0.00,WeatherDisplay:10.37,2013-05-20 08:00:00,
2013-05-20 04:30:00,73.6,68.4,29.59,ESE,112,0.0,0.0,84,0.00,CLR,CLR,0.00,WeatherDisplay:10.37,2013-05-20 08:30:00,
2013-05-20 05:00:00,73.2,68.1,29.60,SE,130,0.0,0.0,84,0.00,CLR,CLR,0.00,WeatherDisplay:10.37,2013-05-20 09:00:00,
2013-05-20 05:30:00,73.0,68.3,29.59,ESE,112,0.0,0.0,85,0.00,CLR,CLR,0.00,WeatherDisplay:10.37,2013-05-20 09:30:00,
2013-05-20 06:00:00,72.5,67.7,29.60,ESE,105,0.0,0.0,85,0.00,CLR,CLR,0.00,WeatherDisplay:10.37,2013-05-20 10:00:00,
2013-05-20 06:30:00,72.3,67.9,29.60,SE,135,0.0,0.0,86,0.00,CLR,CLR,0.00,WeatherDisplay:10.37,2013-05-20 10:30:00,
2013-05-20 07:00:00,72.3,67.9,29.61,SE,135,0.0,0.0,86,0.00,CLR,CLR,0.00,WeatherDisplay:10.37,2013-05-20 11:00:00,
2013-05-20 07:30:00,72.7,68.2,29.63,SE,135,0.0,0.0,86,0.00,CLR,CLR,0.00,WeatherDisplay:10.37,2013-05-20 11:30:00,
2013-05-20 08:00:00,74.1,69.3,29.64,SE,146,0.0,0.0,85,0.00,CLR,CLR,0.00,WeatherDisplay:10.37,2013-05-20 12:00:00,
2013-05-20 08:30:00,75.4,69.5,29.64,SSE,158,0.0,0.0,82,0.00,CLR,CLR,0.00,WeatherDisplay:10.37,2013-05-20 12:30:00,
2013-05-20 09:00:00,77.7,70.3,29.64,SE,136,1.0,1.0,78,0.00,CLR,CLR,0.00,WeatherDisplay:10.37,2013-05-20 13:00:00,
2013-05-20 09:30:00,79.3,71.1,29.65,ESE,115,0.0,2.0,76,0.00,CLR,CLR,0.00,WeatherDisplay:10.37,2013-05-20 13:30:00,
2013-05-20 10:00:00,81.7,72.2,29.65,SE,126,0.0,3.0,73,0.00,CLR,CLR,0.00,WeatherDisplay:10.37,2013-05-20 14:00:00,
2013-05-20 10:30:00,83.1,71.5,29.65,ESE,116,0.0,5.0,68,0.00,CLR,CLR,0.00,WeatherDisplay:10.37,2013-05-20 14:30:00,
2013-05-20 11:00:00,84.4,71.8,29.64,ESE,108,0.0,6.0,66,0.00,CLR,CLR,0.00,WeatherDisplay:10.37,2013-05-20 15:00:00,
2013-05-20 11:30:00,86.4,70.8,29.63,SE,141,0.0,5.0,60,0.00,CLR,CLR,0.00,WeatherDisplay:10.37,2013-05-20 15:30:00,
2013-05-20 12:00:00,89.2,71.0,29.63,ENE,63,0.0,2.0,55,0.00,CLR,CLR,0.00,WeatherDisplay:10.37,2013-05-20 16:00:00,
2013-05-20 12:30:00,90.5,71.0,29.62,ESE,120,0.0,2.0,53,0.00,CLR,CLR,0.00,WeatherDisplay:10.37,2013-05-20 16:30:00,
2013-05-20 13:00:00,92.5,71.1,29.61,ENE,59,0.0,3.0,50,0.00,CLR,CLR,0.00,WeatherDisplay:10.37,2013-05-20 17:00:00,
2013-05-20 13:30:00,91.0,70.4,29.61,ENE,74,0.0,0.0,51,0.00,CLR,CLR,0.00,WeatherDisplay:10.37,2013-05-20 17:30:00,
2013-05-20 14:00:00,87.6,71.5,29.59,WNW,290,0.0,5.0,59,0.00,CLR,CLR,0.00,WeatherDisplay:10.37,2013-05-20 18:00:00,
2013-05-20 14:30:00,89.1,72.4,29.58,WSW,252,0.0,1.0,58,0.00,CLR,CLR,0.00,WeatherDisplay:10.37,2013-05-20 18:30:00,
2013-05-20 15:00:00,87.4,72.8,29.58,WSW,247,0.0,3.0,62,0.00,CLR,CLR,0.00,WeatherDisplay:10.37,2013-05-20 19:00:00,
2013-05-20 15:30:00,87.6,72.5,29.56,West,265,0.0,2.0,61,0.00,CLR,CLR,0.00,WeatherDisplay:10.37,2013-05-20 19:30:00,
2013-05-20 16:00:00,87.8,72.2,29.55,WNW,284,0.0,3.0,60,0.00,CLR,CLR,0.00,WeatherDisplay:10.37,2013-05-20 20:00:00,
2013-05-20 16:30:00,87.1,72.5,29.54,WNW,293,2.0,6.0,62,0.00,CLR,CLR,0.00,WeatherDisplay:10.37,2013-05-20 20:30:00,
2013-05-20 17:00:00,88.0,72.4,29.53,NW,324,0.0,4.0,60,0.00,CLR,CLR,0.00,WeatherDisplay:10.37,2013-05-20 21:00:00,
2013-05-20 17:30:00,87.1,73.0,29.54,NW,316,7.0,11.0,63,0.00,CLR,CLR,0.00,WeatherDisplay:10.37,2013-05-20 21:30:00,
2013-05-20 18:00:00,82.0,65.8,29.56,NNW,344,8.0,10.0,58,0.00,CLR,CLR,0.00,WeatherDisplay:10.37,2013-05-20 22:00:00,
2013-05-20 18:30:00,77.7,68.0,29.56,East,80,0.0,10.0,72,0.00,CLR,CLR,0.00,WeatherDisplay:10.37,2013-05-20 22:30:00,
2013-05-20 19:00:00,75.6,67.5,29.61,SE,125,2.0,9.0,76,0.00,CLR,CLR,0.00,WeatherDisplay:10.37,2013-05-20 23:00:00,
2013-05-20 19:30:00,74.8,66.8,29.61,ESE,115,3.0,5.0,76,0.00,CLR,CLR,0.00,WeatherDisplay:10.37,2013-05-20 23:30:00,
2013-05-20 20:00:00,74.5,67.2,29.61,ESE,122,1.0,6.0,78,0.00,CLR,CLR,0.00,WeatherDisplay:10.37,2013-05-21 00:00:00,
2013-05-20 20:30:00,73.8,66.8,29.61,SE,133,0.0,4.0,79,0.00,CLR,CLR,0.00,WeatherDisplay:10.37,2013-05-21 00:30:00,
2013-05-20 21:00:00,73.0,66.9,29.62,ESE,111,0.0,6.0,81,0.00,CLR,CLR,0.00,WeatherDisplay:10.37,2013-05-21 01:00:00,
2013-05-20 21:30:00,72.5,67.4,29.63,ESE,108,0.0,1.0,84,0.00,CLR,CLR,0.00,WeatherDisplay:10.37,2013-05-21 01:30:00,
2013-05-20 22:00:00,72.1,67.0,29.63,ESE,110,0.0,0.0,84,0.00,CLR,CLR,0.00,WeatherDisplay:10.37,2013-05-21 02:00:00,
2013-05-20 22:30:00,72.1,67.0,29.62,ENE,68,0.0,0.0,84,0.00,CLR,CLR,0.00,WeatherDisplay:10.37,2013-05-21 02:30:00,
2013-05-20 23:00:00,71.4,66.3,29.61,ENE,57,0.0,0.0,84,0.00,CLR,CLR,0.00,WeatherDisplay:10.37,2013-05-21 03:00:00,
2013-05-20 23:30:00,70.9,66.1,29.60,NE,45,0.0,0.0,85,0.00,CLR,CLR,0.00,WeatherDisplay:10.37,2013-05-21 03:30:00,